This demonstration page uses our WeatherBlox Daily Observations layout. Learn more.

Left ArrowRight Arrow

Hourly Observations for March 19, 2020

Temp ( °F °C ) Dew Point ( °F °C ) Humidity (%) Winds ( mph kmh ) Pressure ( in mb ) Visibility ( mi km ) Precip ( " mm )
12:51 am 00:51 Cloudy 48 8.9 39 3.9 71 71 NE 6 9 29.82 1010 10 16 0.00 0.00
1:51 am 01:51 Cloudy 46 7.8 40 4.4 79 79 ENE 8 13 29.82 1010 10 16 0.00 0.00
2:51 am 02:51 Mostly Cloudy 45 7.2 40 4.4 83 83 NE 7 11 29.84 1011 10 16 0.00 0.00
3:51 am 03:51 Cloudy 46 7.8 39 3.9 77 77 N 6 9 29.86 1011 10 16 0.00 0.00
4:51 am 04:51 Cloudy 44 6.7 40 4.4 85 85 W 6 9 29.91 1013 10 16 0.00 0.00
5:51 am 05:51 Mostly Cloudy 42 5.6 40 4.4 92 92 WNW 7 11 29.95 1014 10 16 0.00 0.00
6:51 am 06:51 Mostly Sunny 40 4.4 39 3.9 97 97 Calm 29.98 1015 10 16 0.00 0.00
7:51 am 07:51 Mostly Cloudy 44 6.7 41 5 89 89 WNW 6 9 30.02 1017 10 16 0.00 0.00
8:51 am 08:51 Sunny 48 8.9 42 5.6 80 80 SSW 3 6 30.04 1017 10 16 0.00 0.00
9:51 am 09:51 Cloudy 51 10.6 41 5 69 69 E 7 11 30.06 1018 10 16 0.00 0.00
10:51 am 10:51 Partly Cloudy 54 12.2 40 4.4 59 59 VRB 5 7 30.06 1018 10 16 0.00 0.00
11:51 am 11:51 Partly Cloudy 56 13.3 41 5 57 57 undefined N/A 30.05 1018 10 16 0.00 0.00
12:51 pm 12:51 Sunny 58 14.4 39 3.9 50 50 undefined N/A 30.04 1017 10 16 0.00 0.00
1:51 pm 13:51 Mostly Sunny 59 15 40 4.4 49 49 NW 10 17 30.01 1016 10 16 0.00 0.00
2:51 pm 14:51 Sunny 61 16.1 39 3.9 44 44 W 10 17 30.00 1016 10 16 0.00 0.00
3:51 pm 15:51 Sunny 60 15.6 38 3.3 44 44 NW 12 19 29.99 1016 10 16 0.00 0.00
4:51 pm 16:51 Mostly Sunny 59 15 37 2.8 44 44 NW 15 24 29.99 1016 10 16 0.00 0.00
5:51 pm 17:51 Mostly Cloudy 57 13.9 37 2.8 47 47 NW 12 19 30.01 1016 10 16 0.00 0.00
6:51 pm 18:51 Partly Cloudy 54 12.2 38 3.3 55 55 NW 9 15 30.04 1017 10 16 0.00 0.00
7:51 pm 19:51 Partly Cloudy 52 11.1 38 3.3 59 59 W 9 15 30.06 1018 10 16 0.00 0.00
8:51 pm 20:51 Clear 51 10.6 38 3.3 61 61 W 5 7 30.08 1019 10 16 0.00 0.00
9:51 pm 21:51 Clear 48 8.9 39 3.9 71 71 Calm 30.10 1019 10 16 0.00 0.00
10:51 pm 22:51 Mostly Cloudy 46 7.8 40 4.4 79 79 NNE 3 6 30.11 1020 10 16 0.00 0.00
11:51 pm 23:51 Cloudy 47 8.3 40 4.4 77 77 NW 3 6 30.11 1020 10 16 0.00 0.00

Powered by AerisWeather